Weather History for KISN - October, 2014

Change the Weather History Date:

Sunday, October 12, 2014

  Actual Average Record
Temperature  
Mean Temperature 54 °F 45 °F  
Max Temperature 64 °F 59 °F 85 °F (1934)
Min Temperature 43 °F 31 °F 11 °F (1909)
Degree Days  
Heating Degree Days 11 20  
Month to date heating degree days 222 213  
Since 1 July heating degree days 529 559  
Cooling Degree Days 0 0  
Month to date cooling degree days 0 0  
Year to date cooling degree days 425 455  
Growing Degree Days 4 (Base 50)    
Moisture  
Dew Point 39 °F    
Average Humidity 60    
Maximum Humidity 86    
Minimum Humidity 34    
Precipitation  
Precipitation 0.06 in 0.03 in 0.78 in (2008)
Month to date precipitation 0.16 0.38  
Year to date precipitation 9.94 12.56  
Snow  
Snow 0.00 in 0.00 in 7.20 in (2008)
Month to date snowfall 0.0 0.6  
Since 1 July snowfall 0.0 0.8  
Since 1 September snowfall 0.0 0.8  
Snow Depth 0.00 in    
Sea Level Pressure  
Sea Level Pressure 29.75 in    
Wind  
Wind Speed 12 mph (NW)    
Max Wind Speed 26 mph    
Max Gust Speed 32 mph    
Visibility 10 miles    
Events Rain    
T = Trace of Precipitation, MM = Missing Value Source: NWS Daily Summary

Daily Weather History Graph

Daily Weather History Graph

Search for Another Location

Airport or City:

Trip Planner

Search our weather history database for the weather conditions in past years. The results will help you decide how hot, cold, wet, or windy it might be!

Date:

Astronomy

Oct. 12, 2014 Rise Set
Actual Time 8:09 AM CDT 7:11 PM CDT
Civil Twilight 7:38 AM CDT 7:42 PM CDT
Nautical Twilight 7:02 AM CDT 8:18 PM CDT
Astronomical Twilight 6:26 AM CDT 8:54 PM CDT
Moon 10:16 PM CDT (10/12) 12:48 PM CDT (10/12)
Length of Visible Light 12h 04m
Length of Day
11h 01m
Waning Gibbous, 79% of the Moon is Illuminated
Oct 12
Waning Gibbous
Oct 15
Last Quarter
Oct 23
New
Oct 30
First Quarter
Nov 6
Full

Hourly Weather History & Observations

Time (CDT) Temp. Windchill Dew Point Humidity Pressure Visibility Wind Dir Wind Speed Gust Speed Precip Events Conditions
12:52 AM 53.1 °F - 44.1 °F 71% 29.54 in 10.0 mi NE 3.5 mph - N/A   Mostly Cloudy
1:52 AM 57.0 °F - 42.1 °F 57% 29.54 in 10.0 mi North 8.1 mph - N/A   Overcast
2:52 AM 55.0 °F - 42.1 °F 62% 29.56 in 10.0 mi North 9.2 mph - N/A   Overcast
3:52 AM 53.1 °F - 41.0 °F 64% 29.58 in 10.0 mi NNW 8.1 mph - 0.00 in   Overcast
4:52 AM 52.0 °F - 41.0 °F 66% 29.60 in 10.0 mi NNW 11.5 mph - 0.00 in Rain Light Rain
5:52 AM 48.9 °F - 43.0 °F 80% 29.62 in 8.0 mi NW 5.8 mph - 0.01 in Rain Rain
6:52 AM 48.9 °F - 44.1 °F 83% 29.66 in 10.0 mi NNW 8.1 mph - 0.04 in Rain Light Rain
7:52 AM 50.0 °F - 44.1 °F 80% 29.68 in 10.0 mi North 8.1 mph - 0.01 in Rain Light Rain
8:52 AM 48.9 °F - 44.1 °F 83% 29.70 in 10.0 mi NW 8.1 mph - 0.00 in   Overcast
9:52 AM 48.9 °F - 43.0 °F 80% 29.73 in 10.0 mi NW 11.5 mph - N/A   Scattered Clouds
10:52 AM 50.0 °F - 42.1 °F 74% 29.75 in 10.0 mi NW 11.5 mph - N/A   Scattered Clouds
11:52 AM 53.1 °F - 41.0 °F 64% 29.76 in 10.0 mi NNW 12.7 mph - N/A   Clear
12:52 PM 55.0 °F - 42.1 °F 62% 29.78 in 10.0 mi NW 13.8 mph - N/A   Clear
1:52 PM 59.0 °F - 41.0 °F 51% 29.78 in 10.0 mi NW 13.8 mph - N/A   Clear
2:52 PM 62.1 °F - 35.1 °F 37% 29.78 in 10.0 mi NNW 24.2 mph 28.8 mph N/A   Clear
3:52 PM 62.1 °F - 35.1 °F 37% 29.79 in 10.0 mi NW 19.6 mph 29.9 mph N/A   Clear
4:52 PM 63.0 °F - 33.1 °F 33% 29.81 in 10.0 mi NNW 23.0 mph - N/A   Partly Cloudy
5:52 PM 62.1 °F - 33.1 °F 34% 29.83 in 10.0 mi NNW 17.3 mph - N/A   Partly Cloudy
6:52 PM 57.9 °F - 34.0 °F 41% 29.86 in 10.0 mi NNW 11.5 mph - N/A   Clear
7:52 PM 48.9 °F - 35.1 °F 59% 29.90 in 10.0 mi NW 8.1 mph - N/A   Clear
8:52 PM 46.9 °F - 35.1 °F 63% 29.92 in 10.0 mi NW 10.4 mph - N/A   Clear
9:52 PM 46.0 °F 41.0 °F 35.1 °F 66% 29.94 in 10.0 mi WNW 10.4 mph - N/A   Clear
10:52 PM 45.0 °F 39.3 °F 34.0 °F 65% 29.96 in 10.0 mi West 11.5 mph - N/A   Clear
11:52 PM 45.0 °F 38.9 °F 34.0 °F 65% 29.96 in 10.0 mi WNW 12.7 mph - N/A   Clear